Weather Roundup
Issued by NWS

Home | Current Version | Previous Version | Text Only | Print | Product List | Glossary On
Versions: 1 2 3 4 5 6 7 8 9 10 11 12 13 14 15 16 17 18 19 20 21 22 23 24 25 26 27 28 29 30 31 32 33 34 35 36 37 38 39 40 41 42 43 44 45 46 47 48 49 50
000
NZUS93 KARX 180659
HRRWXR

CURRENT HOURLY OBSERVATIONS ACROSS
MUCH OF THE UPPER MISSISSIPPI VALLEY
NATIONAL WEATHER SERVICE LA CROSSE WI
200 AM CDT FRI AUG 18 2017


...SOUTHEAST MINNESOTA...


CITY           SKY/WX    TMP DP  RH WIND       PRES   REMARKS
ROCHESTER      CLEAR     59  58  96 W8        29.87R
ROCHESTER/MAYO FAIR      63  60  91 W9        29.86S
WINONA         CLOUDY    70  61  73 NW5       29.81F
AUSTIN         CLEAR     61  59  94 NW5       29.87F
ALBERT LEA     CLEAR     64  63  94 W3        29.89R
DODGE CENTER   CLEAR     61  57  88 W6        29.87S
PRESTON        CLEAR     61  58  90 NW8       29.86F
OWATONNA       CLEAR     57  55  94 CALM      29.88S
FARIBAULT      CLEAR     61  59  94 W3        29.87F
$$

...ELSEWHERE IN MINNESOTA...


CITY           SKY/WX    TMP DP  RH WIND       PRES   REMARKS
MINNEAPOLIS    CLEAR     63  59  87 W6        29.86R
INTNL FALLS    PTCLDY    49  48  97 CALM      29.81F
DULUTH         MOCLDY    58  58 100 N7        29.78F
RED WING       CLEAR     63  57  82 W5        29.83R
REDWOOD FALLS  CLEAR     63  59  87 W15       29.91R
MANKATO        CLEAR     60  60 100 W6        29.89R
WORTHINGTON    CLOUDY    61  58  90 NW5       29.95R
FAIRMONT       CLEAR     61  59  93 W3        29.91R
$$

...SOUTHWEST WISCONSIN...


CITY           SKY/WX    TMP DP  RH WIND       PRES   REMARKS
LA CROSSE      CLOUDY    70  62  76 NW10      29.80S
PRAIRIE DU CHI MOCLDY    66  61  82 W6        29.81F
BOSCOBEL       CLOUDY    69  64  84 SW5       29.81R
LONE ROCK      CLOUDY    66  64  93 W7        29.79S
PLATTEVILLE    MOCLDY    65  65 100 W8        29.82S
FORT MC COY    MOCLDY    64  60  86 W8        29.81R
CAMP DOUGLAS   CLOUDY    64  61  91 W10       29.78R
MAUSTON-NEW LI CLOUDY    65  62  90 NW7       29.78R
VIROQUA        CLOUDY    64  64 100 W7        29.82S
WIS DELLS      CLOUDY    65  60  82 NW7       29.77S
$$

...ELSEWHERE IN WISCONSIN...


CITY           SKY/WX    TMP DP  RH WIND       PRES   REMARKS
MILWAUKEE      PTCLDY    69  61  75 W12       29.72S
MADISON        MOCLDY    66  61  84 VRB7      29.77R
GREEN BAY      CLOUDY    64  61  90 W14G22    29.66S
EAU CLAIRE     NOT AVBL
BLACK RVR FLS  CLOUDY    65  62  90 NW6       29.79S
MEDFORD        CLOUDY    60  59  94 NW8       29.76R
WAUSAU         CLOUDY    62  61  96 NW12      29.72S
WIS RAPIDS     CLOUDY    63  62  97 W8        29.76S
MARSHFIELD     CLOUDY    62  59  90 W13       29.75S
RICE LAKE      CLEAR     60  58  92 W3        29.82S
$$

...NORTHEAST IOWA...


CITY           SKY/WX    TMP DP  RH WIND       PRES   REMARKS
WATERLOO       CLEAR     64  60  87 W6        29.86F
DUBUQUE        CLEAR     63  61  93 NW8       29.84S
DECORAH        CLOUDY    64  63  94 CALM      29.84S
MASON CITY     CLEAR     59  57  93 W8        29.91S
CHARLES CITY   CLEAR     61  61 100 W6        29.88F
OELWEIN        CLEAR     61  61 100 W6        29.87S
$$

...ELSEWHERE IN IOWA...


CITY           SKY/WX    TMP DP  RH WIND       PRES   REMARKS
DES MOINES     CLEAR     65  61  87 CALM      29.91S
IOWA CITY      CLEAR     65  62  90 W8        29.89R
FORT DODGE     CLOUDY    57  55  94 CALM      29.92F VSB<1/4
MARSHALLTOWN   CLEAR     60  60 100 W5        29.89F
CEDAR RAPIDS   CLEAR     62  61  96 W7        29.86S
$$

...NORTHERN ILLINOIS...


CITY           SKY/WX    TMP DP  RH WIND       PRES   REMARKS
CHICAGO-OHARE  PTCLDY    70  62  76 W13       29.76F
CHICAGO-MIDWAY PTCLDY    72  64  76 W14       29.77S
MOLINE         CLEAR     68  62  81 W8        29.84S
ROCKFORD       MOCLDY    67  63  87 W7        29.81R
PEORIA         CLEAR     68  64  87 W5        29.85F
$$

NOTE: "FAIR" INDICATES FEW OR NO CLOUDS BELOW 12,000 FEET WITH NO
SIGNIFICANT WEATHER AND/OR OBSTRUCTIONS TO VISIBILITY. WIND
SPEEDS ARE IN MILES-PER-HOUR.




USA.gov is the U.S. government's official web portal to all federal, state and local government web resources and services.